星链-34057 (STARLINK-34057)

导读

STARLINK-34057是美国SpaceX星链计划中的卫星,于2025年5月4日发射。星链项目旨在构建全球卫星互联网星座,为全球偏远地区等提供高速低延迟网络服务,该卫星发射后将加入已部署的星链卫星网络,进一步拓展星座覆盖范围与服务能力,推进星链全球互联网覆盖目标的实现。

基本信息
目录编号:
63814
目录名称:
STARLINK-34057
国际标识:
2025-092L
轨道中心:
EARTH
卫星名称:
星链-34057
卫星全名:
星链-34057 (STARLINK-34057)
卫星状态:
在轨 (已飞行406 天)
发射日期:
2025-05-04 UTC
国别 :
美国 (US)
星等 :
--
轨道信息
数据来源 国际轨道数据
星历时间: 2026-06-14T02:42:02+0800
7小时前
查看轨道信息
半长轴: 6861.149km
偏心率: 0.0004262
轨道倾角: 43.001°
近地点辐角 273.897°
升交点赤经 349.587°
平近点角 86.139°
近地点: 480.087km
远地点: 485.937km
周期: 94.266分钟
每日圈数: 15.275924
详细信息
固有亮度:
5
最大亮度:
2.5
卫星平台:
Starlink V1.0
覆盖范围:
全球
运营商:
太空探索技术公司
运营商所在国:
美国
制造商(研发单位):
太空探索技术公司
制造商所在国:
美国
使用方式:
暂无
卫星简介
Starlink 计划是 SpaceX 推出的全球卫星互联网项目,通过发射低轨道卫星,为全球尤其是偏远地区提供高速、低延迟的互联网服务。自 2019 年起,Starlink 已部署数千颗卫星,旨在缩小全球数字鸿沟,推动互联网普及。该项目还为军事、航空等行业提供通信支持,带来广泛经济效益。
2D轨道图
3D轨道图
轨道高度分析图
轨道倾角分析图
轨道综合分析图
查看轨道综合分析图